Location: Ferchesar
(52.6477°N, 12.4298°E)
Time: 08:51:58
(UTC+01:00)

Tiros 1 despin weight - Pass Details

Date: 12 December 2021
Orbit: 592 x 641 km, 48.2° (Epoch: 19 January)

Event Time Altitude Azimuth Distance (km) Brightness Sun altitude
Rises 10:06:26 0° 213° (SSW) 2,862 ? 10.0°
Reaches altitude 10° 10:09:12 10° 196° (SSW) 1,951 ? 10.2°
Maximum altitude 10:12:29 20° 149° (SSE) 1,394 ? 10.4°
Drops below altitude 10° 10:15:45 10° 102° (ESE) 1,938 ? 10.7°
Sets 10:18:29 0° 85° (E) 2,836 ? 10.8°
